Temperature
18 18 18 18 18 18 18 18 18 17 17 17 17 17 17 17 17 18 18 18 18 18 18 18 18 18 18 18 18 18 17 17 17 17 17 17 17 17 17 17 17 17 17
18 18 17 18 18 18 17 18 17 17 17 17 17 17 17 17 17 17 17 18 18 18 18 18 18 18 18 18 18 18 17 17 17 17 17 17 17 17 17 17 17 17 17
18 18 18 18 18 18 17 17 17 17 17 17 17 17 17 17 17 17 17 17 18 18 18 18 18 18 18 18 18 18 18 17 17 17 17 17 17 17 17 17 17 17 17
17 17 17 17 17 17 17 17 17 17 17 17 17 17 17 17 17 17 17 17 17 17 18 18 18 18 18 18 18 18 18 18 18 18 17 17 17 17 17 17 17 17 17
17 16 17 17 17 17 17 17 17 17 17 17 17 17 17 17 17 17 17 17 17 17 17 17 18 18 18 18 18 18 18 18 18 18 17 17 17 17 17 17 17 17 17
16 16 16 16 17 17 17 17 17 17 17 17 17 17 17 17 17 17 17 17 17 17 17 17 17 17 18 18 18 18 18 18 18 18 18 18 17 17 17 17 17 17 17
16 16 16 16 16 16 17 16 16 16 16 16 17 17 17 17 17 17 17 17 17 17 17 17 17 17 17 17 18 18 18 18 18 17 17 17 17 17 17 17 17 17 17
15 15 16 16 16 16 16 16 16 16 16 16 17 18 19 19 17 17 17 17 17 17 17 17 16 16 17 17 17 17 17 17 17 17 17 17 17 17 17 17 17 17 17
15 15 15 16 16 16 16 16 16 16 16 16 16 17 19 20 19 18 17 17 16 16 17 17 16 16 16 16 16 17 17 17 17 17 17 17 17 17 17 17 17 17 17
15 15 15 15 15 15 15 15 16 16 16 16 16 16 17 18 19 19 17 17 16 16 16 16 16 16 16 16 16 17 17 17 17 17 17 17 17 17 17 17 17 17 17
14 14 14 15 15 15 15 15 15 15 16 16 16 16 16 16 17 18 19 18 17 17 16 16 16 16 16 16 16 16 17 17 17 17 17 17 17 17 17 17 17 17 17
14 14 14 14 14 14 14 14 15 15 15 15 16 16 16 17 17 17 18 17 18 17 16 16 16 16 16 16 16 16 17 17 17 17 17 17 17 17 17 17 17 16 16
13 13 13 13 13 13 13 13 13 14 14 14 15 15 16 16 17 17 17 18 17 17 16 16 16 16 15 16 16 16 16 17 17 17 17 17 17 17 17 16 16 16 16
13 13 12 12 12 12 12 12 12 13 13 13 14 14 14 15 15 16 16 17 17 18 17 16 16 15 15 15 15 16 16 16 16 17 17 17 16 16 16 16 16 16 16
12 12 12 12 11 11 11 11 11 12 12 12 13 13 14 14 14 15 15 16 16 18 18 16 16 15 15 15 15 15 15 16 16 16 16 16 16 16 16 16 16 16 16
11 11 11 11 11 11 11 10 11 11 11 11 11 12 13 13 14 14 14 15 15 16 17 17 15 15 14 14 14 15 15 15 15 15 16 16 16 16 16 16 16 16 16
11 11 11 11 10 10 10 10 10 10 10 10 10 11 11 12 13 13 13 14 14 15 15 16 15 14 14 14 14 14 14 14 14 15 15 15 15 16 16 16 16 16 16
11 11 11 10 10 10 10 10 10 10 10 10 10 10 10 11 11 12 12 13 13 14 14 15 15 14 14 14 13 13 13 13 14 14 14 14 15 15 15 15 15 15 15
10 10 10 10 10 10 10 10 10 10 10 10 10 10 10 10 10 11 11 12 12 13 13 14 14 14 13 13 13 13 13 13 13 13 13 14 14 14 14 14 14 15 15
9 9 10 10 10 10 10 10 10 10 9 9 9 9 9 9 10 10 10 11 11 12 12 13 13 13 13 13 13 13 12 12 12 12 12 13 13 13 13 13 13 14 14
9 9 9 9 9 9 10 10 10 10 9 9 9 9 9 9 9 9 10 10 11 11 12 12 13 13 13 13 12 12 12 12 12 12 12 12 12 12 12 12 12 13 13
8 8 8 8 9 9 10 9 9 9 9 9 9 9 9 9 9 9 9 10 10 11 11 12 12 13 13 13 12 12 12 12 11 11 11 11 11 11 11 12 12 12 12
7 7 7 7 8 8 9 9 9 9 9 9 9 9 9 10 9 9 9 9 10 10 10 11 12 12 13 13 13 12 12 12 12 12 11 11 11 11 11 11 11 11 11
6 6 6 7 7 7 8 9 9 9 9 9 9 9 9 9 9 9 9 9 9 10 10 11 11 12 12 12 13 13 12 12 11 11 11 10 10 10 10 11 11 11 11
5 6 6 6 6 7 7 8 8 8 8 8 9 9 8 9 8 8 8 9 9 10 10 11 11 11 12 12 12 12 11 11 11 10 10 10 9 9 9 10 10 10 10
5 5 5 6 6 6 7 7 8 8 8 8 8 8 8 8 8 8 8 8 9 9 10 10 11 11 11 11 12 12 12 11 11 10 10 10 9 9 8 8 9 9 9
Wind_Speed
10 10 8 9 11 10 10 10 10 11 11 12 13 13 13 14 14 13 11 14 18 19 20 20 20 20 21 22 23 24 25 25 25 25 25 24 24 23 22 21 21 20 19
10 10 10 9 10 11 11 9 11 10 10 10 12 12 13 13 13 14 14 13 18 20 20 20 20 20 20 21 23 24 25 26 26 27 26 26 26 25 24 24 23 23 22
11 10 10 9 9 10 10 9 10 9 10 10 12 12 11 12 12 13 14 12 13 19 21 19 19 20 20 22 23 23 24 25 26 27 27 27 27 27 26 26 25 25 25
12 9 9 9 8 8 8 8 8 9 9 9 9 9 9 9 12 12 13 13 12 12 17 20 19 19 19 20 21 23 23 25 26 26 26 27 28 28 28 27 27 26 26
10 8 8 7 7 7 8 9 8 8 8 9 9 9 9 9 10 11 11 12 13 12 12 14 18 18 19 20 21 21 22 24 25 26 26 26 27 28 28 28 28 27 27
8 6 6 7 7 7 7 8 8 8 8 7 8 8 8 8 8 9 10 10 11 12 13 12 12 16 20 20 20 20 21 23 24 26 26 27 27 27 28 28 28 28 28
5 5 6 6 7 7 8 8 8 9 8 7 7 8 8 9 9 8 9 9 9 9 9 9 10 10 11 19 20 19 20 21 23 25 26 26 27 27 28 28 28 28 28
4 5 6 6 6 6 8 9 9 9 8 7 7 7 7 7 7 8 7 8 8 7 7 8 7 8 9 9 12 18 18 19 21 22 24 25 26 26 27 27 28 28 28
4 4 6 6 6 8 9 10 10 11 9 8 8 7 6 6 4 6 7 7 6 6 6 5 7 7 8 8 8 12 14 15 17 20 22 24 25 25 26 26 26 27 28
3 3 4 5 7 7 8 10 10 9 10 9 8 8 8 5 5 4 7 8 7 7 6 5 6 6 7 8 6 4 7 10 12 15 19 21 22 24 25 25 25 26 26
3 2 2 3 5 6 7 8 8 9 9 11 9 8 9 7 8 7 6 6 7 7 6 6 5 5 5 6 5 2 3 6 8 10 13 16 19 21 22 23 24 24 25
2 2 2 3 4 4 5 6 7 9 9 11 10 9 9 8 9 9 8 7 6 6 5 4 5 4 4 4 1 5 3 1 4 6 8 10 13 17 19 20 22 22 23
5 4 4 4 4 4 4 5 6 8 9 10 11 11 10 10 8 8 8 7 6 5 5 6 5 3 3 2 2 4 3 2 1 2 3 5 7 10 13 16 18 20 21
7 5 6 6 6 5 5 5 5 7 8 9 11 11 10 10 9 9 9 8 8 7 7 6 4 4 3 3 4 1 5 7 4 3 2 2 3 5 7 9 12 14 17
9 9 9 8 8 7 7 6 7 7 7 8 10 11 10 10 10 10 10 9 9 8 7 7 6 5 4 4 3 3 5 9 8 6 4 3 1 2 4 6 7 10 11
12 12 12 11 11 10 9 8 8 8 8 9 8 9 10 9 9 9 10 10 10 10 8 5 5 7 5 4 5 5 7 10 10 9 8 6 5 3 1 1 3 5 7
15 15 15 14 13 13 12 10 10 10 10 10 9 9 10 10 8 8 9 9 10 10 10 7 5 7 7 5 5 5 6 6 8 10 10 9 8 7 6 5 3 1 2
17 17 16 16 16 15 14 14 13 12 12 11 11 11 10 8 10 9 8 10 10 10 11 11 7 7 7 8 7 6 5 6 8 12 12 11 11 10 9 8 7 5 4
18 18 17 17 17 17 16 15 15 14 13 13 12 12 11 10 10 9 9 9 9 10 10 10 9 7 6 8 8 7 7 6 7 10 12 13 13 13 12 11 11 10 9
19 19 19 18 18 18 18 16 15 15 14 14 13 12 12 11 11 10 9 10 9 10 10 10 9 8 7 8 9 8 6 6 6 6 8 10 12 14 14 13 13 12 13
19 19 19 19 18 17 17 17 16 16 15 15 14 14 13 12 9 8 9 9 9 9 9 10 9 8 8 9 9 8 8 7 5 5 6 5 6 7 9 11 13 13 14
18 18 19 19 19 17 15 15 16 16 15 15 15 14 13 13 13 13 12 11 10 11 11 10 10 11 11 11 10 10 10 9 5 5 6 5 5 6 6 9 12 14 15
17 17 18 17 18 17 14 15 16 16 16 15 15 14 13 13 14 13 14 16 16 16 14 12 12 12 13 13 14 14 13 11 7 9 8 5 5 6 7 11 13 14 15
15 15 16 16 15 15 14 15 16 17 17 16 16 15 14 13 12 12 12 14 15 16 16 15 14 13 12 12 15 15 13 9 9 8 7 5 6 6 7 9 12 14 15
14 14 14 15 15 14 13 15 15 14 15 17 16 15 15 15 12 10 12 14 14 13 14 15 14 11 8 10 12 12 13 12 10 7 6 6 8 8 7 8 11 14 15
13 13 13 13 14 14 13 15 16 14 14 14 14 14 14 14 10 13 13 14 14 13 12 13 13 12 12 13 15 16 15 15 11 7 8 7 11 9 6 6 8 10 12
Wind_Direction
242 243 243 244 248 247 241 241 248 252 251 248 244 241 241 240 244 243 234 200 209 219 225 226 226 227 226 222 219 218 217 216 215 215 216 216 216 215 213 211 210 209 209
244 245 246 244 247 248 250 250 250 252 252 250 247 244 241 240 240 241 244 222 211 219 226 228 227 227 226 224 221 220 219 219 217 217 216 217 217 217 215 214 213 211 211
244 241 244 243 245 248 249 249 252 253 252 247 245 245 243 241 241 238 242 244 229 217 220 224 226 228 228 226 224 222 220 220 219 217 217 217 217 218 217 216 214 214 213
246 244 244 243 245 249 247 247 249 250 251 251 250 249 246 242 243 242 242 240 241 239 218 214 221 227 229 229 228 225 222 219 218 217 218 219 218 218 217 217 216 215 215
249 246 247 242 241 243 245 250 245 248 250 248 248 244 245 244 244 243 243 243 239 239 242 210 210 223 228 230 229 227 223 221 218 217 217 219 220 219 218 218 218 217 217
247 247 252 247 244 247 246 244 250 245 252 250 255 253 247 246 242 241 241 240 239 237 238 236 222 220 220 226 229 229 227 224 220 217 217 219 221 220 219 218 218 220 219
256 254 258 255 251 248 250 247 246 240 240 240 247 248 240 237 238 239 238 242 232 232 238 237 239 242 221 214 221 228 229 226 221 218 217 219 221 220 219 217 218 220 221
279 261 260 259 255 255 252 250 244 248 240 223 239 249 243 219 216 224 222 225 231 223 225 227 236 240 251 240 214 212 225 229 226 223 221 221 220 220 219 219 219 220 221
298 290 273 269 265 252 247 244 239 238 239 226 228 244 251 242 194 191 209 215 215 222 230 227 231 235 240 246 244 207 213 226 230 229 226 223 220 219 219 219 220 220 221
300 294 290 279 273 265 258 251 239 238 238 236 220 232 257 294 258 204 195 199 207 221 238 249 248 240 241 245 237 245 213 227 234 235 232 226 222 220 220 220 220 221 222
298 296 292 285 280 278 273 266 260 245 239 241 234 222 224 228 241 255 220 197 206 216 220 234 247 248 246 247 247 222 185 222 232 238 238 233 226 222 221 222 225 225 224
265 275 282 283 282 284 280 274 266 253 251 250 249 238 227 224 223 229 232 222 222 217 216 232 235 226 226 232 207 67 57 221 229 233 237 237 231 224 222 224 228 228 227
263 235 246 244 254 261 273 279 272 265 257 252 247 246 242 239 237 233 237 231 229 219 209 217 205 204 196 186 125 80 89 84 132 196 217 226 228 226 225 226 228 230 231
270 255 240 238 241 241 247 248 264 266 263 257 252 252 251 245 239 234 235 235 231 226 212 205 184 185 165 152 100 226 102 81 75 93 132 180 216 226 228 230 232 233 234
264 248 241 241 242 240 240 240 246 252 262 261 256 251 249 250 245 239 235 234 238 237 225 192 194 164 167 134 127 111 95 85 75 76 86 102 152 214 226 231 234 235 235
262 257 249 245 242 240 237 238 246 242 243 250 255 256 253 249 247 242 235 233 234 243 246 202 188 166 160 147 128 114 103 101 84 78 77 79 83 92 118 190 219 232 235
258 252 248 246 243 241 237 235 243 245 243 245 246 248 250 253 248 244 239 233 230 232 237 229 189 162 165 167 145 134 128 113 94 80 78 76 76 76 75 75 75 86 225
257 253 250 247 244 242 238 235 238 241 241 243 244 244 244 247 248 244 241 235 231 229 232 231 205 182 176 167 151 143 130 110 99 87 82 78 75 73 72 72 70 71 74
261 256 252 248 245 244 241 237 236 238 239 240 240 240 241 237 243 242 238 239 236 231 231 234 219 187 172 159 148 139 126 117 108 106 94 84 77 75 72 70 70 71 74
265 257 253 248 245 243 240 236 234 234 237 237 238 239 239 236 235 238 236 233 235 236 227 229 223 194 175 166 159 153 147 140 125 110 94 93 90 82 75 70 72 74 77
266 259 253 249 245 242 239 235 233 234 234 237 236 235 236 234 239 239 245 235 228 230 229 223 218 204 186 175 175 170 159 144 129 139 126 113 109 95 89 79 74 76 80
268 263 256 251 246 241 231 218 226 236 236 235 236 236 234 223 221 221 237 247 248 238 233 228 220 213 198 188 180 172 161 158 154 158 138 109 100 90 80 80 78 83 85
273 265 259 254 249 244 231 208 212 230 236 236 236 235 238 230 213 225 221 223 236 241 246 246 236 225 207 191 182 179 179 178 162 157 146 119 112 99 90 82 82 85 88
274 268 262 256 250 244 223 210 207 223 234 236 234 233 234 241 232 229 234 231 230 227 227 233 240 238 226 200 189 183 173 151 131 147 158 135 136 117 103 93 87 89 91
274 268 261 254 247 242 219 206 205 223 228 233 235 233 232 232 222 211 238 244 242 237 225 223 233 239 231 194 180 167 160 154 149 158 172 143 143 130 118 112 101 97 97
272 268 261 253 246 239 214 200 204 226 227 229 229 232 228 231 218 195 229 239 240 238 234 215 216 218 211 186 177 180 173 168 158 159 176 157 154 147 131 130 132 128 114
Height
1532 1532 1533 1533 1535 1536 1536 1536 1537 1538 1538 1538 1539 1540 1540 1541 1543 1544 1545 1544 1545 1547 1548 1550 1552 1554 1556 1558 1561 1563 1565 1567 1569 1571 1573 1575 1577 1579 1582 1584 1586 1588 1590
1526 1526 1527 1528 1530 1531 1532 1532 1533 1533 1533 1534 1534 1535 1535 1537 1537 1538 1540 1540 1541 1542 1544 1546 1547 1549 1552 1554 1556 1559 1561 1563 1565 1567 1569 1571 1573 1576 1578 1580 1582 1585 1587
1520 1521 1521 1522 1524 1526 1527 1527 1528 1528 1529 1530 1530 1531 1531 1532 1533 1533 1535 1536 1537 1538 1539 1541 1543 1545 1547 1549 1552 1554 1556 1558 1561 1563 1565 1567 1569 1571 1574 1576 1579 1581 1583
1514 1515 1515 1517 1518 1520 1522 1523 1524 1524 1525 1525 1526 1527 1527 1527 1528 1529 1530 1531 1533 1535 1536 1536 1538 1540 1542 1544 1546 1549 1551 1553 1556 1558 1560 1562 1565 1567 1569 1571 1574 1577 1579
1508 1509 1510 1511 1513 1515 1517 1519 1520 1520 1521 1521 1522 1522 1523 1523 1524 1525 1526 1527 1528 1529 1531 1532 1533 1535 1537 1539 1541 1543 1545 1548 1550 1553 1555 1558 1560 1562 1564 1567 1569 1572 1574
1502 1503 1504 1506 1508 1510 1512 1514 1515 1516 1517 1517 1518 1519 1519 1520 1520 1521 1522 1523 1524 1525 1527 1528 1529 1530 1531 1533 1535 1537 1539 1542 1544 1547 1550 1552 1554 1557 1559 1562 1564 1567 1569
1496 1498 1500 1502 1504 1505 1507 1509 1511 1512 1513 1514 1515 1516 1516 1516 1516 1517 1518 1520 1521 1521 1522 1524 1525 1526 1527 1527 1529 1531 1533 1536 1538 1541 1544 1546 1549 1551 1554 1556 1559 1561 1564
1493 1495 1496 1498 1499 1500 1502 1505 1507 1509 1510 1511 1512 1513 1513 1514 1512 1513 1514 1515 1517 1518 1519 1520 1520 1521 1522 1524 1525 1525 1527 1530 1533 1535 1538 1540 1543 1545 1548 1550 1553 1556 1558
1491 1492 1493 1494 1495 1497 1499 1501 1503 1504 1506 1508 1508 1510 1510 1509 1510 1511 1511 1512 1513 1514 1516 1517 1517 1517 1518 1519 1520 1521 1522 1524 1527 1529 1532 1535 1537 1539 1542 1545 1547 1550 1552
1490 1490 1490 1491 1492 1494 1495 1497 1498 1500 1502 1504 1504 1505 1507 1507 1508 1508 1509 1509 1510 1511 1512 1513 1514 1514 1514 1515 1515 1516 1517 1519 1521 1524 1526 1529 1531 1534 1536 1539 1541 1544 1546
1488 1488 1487 1487 1488 1489 1490 1492 1493 1495 1497 1499 1501 1502 1502 1503 1504 1506 1506 1508 1508 1509 1509 1509 1509 1510 1510 1511 1511 1512 1513 1515 1516 1518 1521 1523 1526 1528 1530 1533 1535 1537 1540
1486 1485 1484 1484 1484 1485 1486 1486 1487 1489 1491 1493 1495 1497 1498 1500 1501 1502 1503 1504 1505 1506 1505 1505 1506 1506 1506 1507 1508 1508 1509 1510 1512 1513 1515 1518 1520 1522 1525 1527 1529 1531 1533
1484 1483 1482 1481 1481 1481 1481 1481 1482 1483 1485 1487 1488 1491 1493 1495 1496 1498 1499 1499 1501 1502 1502 1502 1503 1503 1503 1503 1503 1504 1505 1506 1508 1509 1511 1513 1515 1517 1519 1521 1523 1525 1528
1481 1479 1478 1477 1477 1476 1476 1476 1476 1477 1479 1480 1482 1484 1486 1488 1491 1492 1494 1496 1496 1498 1498 1500 1500 1500 1499 1499 1499 1500 1501 1502 1504 1505 1506 1508 1510 1512 1514 1516 1518 1520 1522
1476 1475 1473 1473 1472 1472 1471 1471 1471 1471 1472 1474 1476 1477 1479 1481 1484 1486 1488 1490 1493 1493 1494 1495 1496 1496 1496 1496 1496 1497 1498 1499 1500 1502 1503 1504 1506 1508 1510 1512 1513 1515 1517
1470 1469 1469 1468 1467 1467 1467 1466 1466 1467 1467 1468 1469 1470 1472 1474 1476 1479 1481 1484 1486 1488 1489 1491 1492 1492 1493 1493 1493 1494 1495 1496 1497 1498 1499 1501 1503 1504 1505 1507 1509 1510 1512
1462 1462 1461 1461 1461 1461 1461 1461 1461 1462 1462 1463 1463 1464 1464 1467 1469 1471 1474 1476 1479 1482 1484 1487 1488 1488 1488 1490 1491 1492 1493 1493 1494 1495 1497 1498 1499 1500 1502 1503 1504 1505 1506
1454 1454 1454 1454 1454 1455 1455 1455 1456 1457 1457 1458 1458 1459 1459 1460 1461 1464 1467 1469 1472 1475 1478 1481 1483 1484 1484 1486 1488 1489 1491 1491 1492 1493 1494 1495 1496 1497 1498 1499 1500 1501 1502
1444 1445 1445 1445 1446 1447 1448 1448 1449 1450 1451 1452 1453 1454 1454 1455 1455 1457 1460 1462 1465 1469 1472 1475 1477 1479 1481 1482 1484 1486 1488 1489 1490 1491 1492 1493 1494 1495 1496 1497 1497 1498 1498
1434 1434 1434 1435 1437 1438 1439 1441 1442 1443 1444 1446 1447 1447 1448 1449 1451 1452 1453 1456 1459 1462 1465 1469 1471 1474 1476 1478 1480 1483 1485 1487 1489 1490 1491 1492 1493 1494 1494 1495 1495 1496 1496
1423 1423 1423 1424 1426 1428 1430 1432 1434 1436 1437 1439 1440 1441 1442 1444 1445 1446 1449 1450 1453 1456 1459 1462 1465 1468 1471 1473 1476 1479 1482 1484 1487 1488 1490 1491 1492 1493 1494 1495 1495 1495 1496
1413 1412 1412 1413 1415 1418 1421 1423 1426 1428 1430 1432 1433 1435 1436 1437 1438 1440 1442 1445 1447 1450 1454 1456 1458 1462 1464 1467 1471 1474 1478 1481 1484 1486 1488 1490 1492 1493 1494 1495 1495 1496 1497
1403 1402 1402 1403 1405 1407 1411 1414 1417 1420 1423 1425 1426 1428 1430 1432 1433 1435 1436 1438 1441 1443 1447 1449 1452 1456 1459 1462 1465 1469 1473 1477 1480 1482 1487 1489 1491 1492 1494 1495 1496 1497 1498
1393 1392 1392 1393 1395 1397 1401 1405 1408 1412 1415 1417 1419 1421 1423 1425 1428 1430 1432 1434 1436 1437 1439 1442 1446 1450 1454 1457 1461 1465 1469 1473 1477 1481 1485 1487 1490 1492 1493 1495 1496 1497 1498
1384 1384 1384 1384 1386 1389 1392 1396 1400 1404 1407 1410 1412 1415 1417 1419 1421 1423 1426 1428 1430 1432 1434 1437 1440 1444 1448 1452 1455 1460 1464 1468 1472 1477 1482 1485 1488 1491 1493 1495 1496 1498 1499
1377 1376 1376 1376 1378 1381 1384 1388 1392 1397 1400 1403 1405 1407 1410 1412 1415 1417 1419 1422 1424 1426 1429 1431 1434 1437 1442 1446 1450 1454 1458 1463 1467 1473 1477 1482 1485 1489 1493 1495 1496 1498 1500